SCP
0 0 0 0 0 0 0 0 0 0 0 0 0 0 0 0 0 0 0 0 0 0 0 0 0 0 0 0 0 0 0 0 0 0 0 0 0 0 0 0 0 0 0
0 0 0 0 0 0 0 0 0 0 0 0 0 0 0 0 0 0 0 0 0 0 0 0 0 0 0 0 0 0 0 0 0 0 0 0 0 0 0 0 0 0 0
0 0 0 0 0 0 0 0 0 0 0 0 0 0 0 0 0 0 0 0 0 0 0 0 0 0 0 0 0 0 0 0 0 0 0 0 0 0 0 0 0 0 0
0 0 0 0 0 0 0 0 0 0 0 0 0 0 0 0 0 0 0 0 0 0 0 0 0 0 0 0 0 0 0 0 0 0 0 0 0 0 0 0 0 0 0
0 0 0 0 0 0 0 0 0 0 0 0 0 0 0 0 0 0 0 0 0 0 0 0 0 0 0 0 0 0 0 0 0 0 0 0 0 0 0 0 0 -0 -0
0 0 0 0 0 0 0 0 0 0 0 0 0 0 0 0 0 0 0 0 0 0 0 0 0 0 0 0 0 0 0 0 0 0 0 0 0 0 0 0 0 -0 -0
0 0 0 0 0 0 0 0 0 0 0 0 0 0 0 0 0 0 0 0 0 0 0 0 0 0 0 0 0 0 0 0 0 0 0 0 0 0 0 0 0 -0 -0
0 0 0 0 0 0 0 0 0 0 0 0 0 0 0 0 0 0 0 0 0 0 0 0 0 0 0 0 0 0 -0 -0 -0 0 0 0 0 0 0 0 0 0 0
0 0 0 0 0 0 0 0 0 0 0 0 0 0 0 0 0 0 0 0 0 0 0 0 0 0 0 0 0 0 -0 -0 -0 0 0 0 0 0 0 0 0 0 0
0 0 0 0 0 0 0 0 0 0 0 0 0 0 0 0 0 0 0 0 0 0 0 0 0 0 0 0 0 0 0 0 -0 0 0 0 0 0 0 0 0 0 0
0 0 0 0 0 0 0 0 0 0 0 0 0 0 0 0 0 0 0 0 0 0 0 0 0 0 0 0 0 0 0 0 0 0 0 0 0 0 0 0 0 0 0
0 0 0 0 0 0 0 0 0 0 0 0 0 0 0 0 0 0 0 0 0 0 0 0 0 0 0 0 0 0 0 0 0 0 0 0 0 0 0 0 0 0 0
0 0 0 0 0 0 0 0 0 0 0 0 0 0 0 0 0 0 0 0 0 0 0 0 0 0 0 0 0 0 0 0 0 0 0 0 0 0 0 0 0 0 0
0 0 0 0 0 0 0 0 0 0 0 0 0 0 0 0 0 0 0 0 0 0 0 0 0 0 0 0 0 0 0 0 0 0 0 0 0 0 0 0 0 0 0
0 0 0 0 0 0 0 0 0 0 0 0 0 0 0 0 0 0 0 0 0 0 0 0 0 0 0 0 0 0 0 0 0 0 0 0 0 0 0 0 0 0 0
0 0 0 0 0 0 0 0 0 0 0 0 0 0 0 0 0 0 0 0 0 0 0 0 0 0 0 0 0 0 0 0 0 0 0 0 0 0 0 0 0 0 0
0 0 0 0 0 0 0 0 0 0 0 0 0 0 0 0 0 0 0 0 0 0 0 0 0 0 0 0 0 0 0 0 0 0 0 0 0 0 0 0 0 0 0
0 0 0 0 0 0 0 0 0 0 0 0 0 0 0 0 0 0 0 0 0 0 0 0 0 0 0 0 0 0 0 0 0 0 0 0 0 0 0 0 0 0 0
0 0 0 0 0 0 0 0 0 0 0 0 0 0 0 0 0 0 0 0 0 0 0 0 0 0 0 0 0 0 0 0 0 0 0 0 0 0 0 0 0 0 0
0 0 0 0 0 0 0 0 0 0 0 0 0 0 0 0 0 0 0 0 0 0 0 0 0 0 0 0 0 0 0 0 0 0 0 0 0 0 0 0 0 0 0
0 0 0 0 0 0 0 0 0 0 0 0 0 0 0 0 0 0 0 0 0 0 0 0 0 0 0 0 0 0 0 0 0 0 0 0 0 0 0 0 0 0 0
0 0 0 0 0 0 0 0 0 0 0 0 0 0 0 0 0 0 0 0 0 0 0 0 0 0 0 0 0 0 0 0 0 0 0 0 0 0 0 0 0 0 0
0 0 0 0 0 0 0 0 0 0 0 0 0 0 0 0 0 0 0 0 0 0 0 0 0 0 0 0 0 0 0 0 0 0 0 0 0 0 0 0 0 0 0
0 0 0 0 0 0 0 0 0 0 0 0 0 0 0 0 0 0 0 0 0 0 0 0 0 0 0 0 0 0 0 0 0 0 0 0 0 0 0 0 0 0 0
0 0 0 0 0 0 0 0 0 0 0 0 0 0 0 0 0 0 0 0 0 0 0 0 0 0 0 0 0 0 0 0 0 0 0 0 0 0 0 0 0 0 0
0 0 0 0 0 0 0 0 0 0 0 0 0 0 0 0 0 0 0 0 0 0 0 0 0 0 0 0 0 0 0 0 0 0 0 0 0 0 0 0 0 0 0
Wind_Speed
5 4 5 4 4 4 4 4 4 3 3 4 3 4 3 3 3 4 3 3 4 3 3 3 3 2 2 2 2 3 2 3 3 1 1 2 3 4 4 4 4 4 5
5 5 5 4 4 4 4 4 4 4 3 3 4 4 4 3 3 4 4 3 3 3 2 3 2 2 3 2 2 3 2 2 3 1 2 2 3 3 3 4 4 4 3
5 6 5 5 5 5 4 4 4 4 4 3 4 4 4 4 4 3 4 3 3 2 2 2 2 3 3 2 2 2 2 2 2 2 1 1 2 2 3 3 4 3 4
6 6 6 6 5 5 4 4 4 4 4 4 4 4 4 4 4 4 4 4 3 2 2 2 2 3 3 3 2 2 2 3 3 2 1 1 1 2 2 2 3 3 4
7 6 6 5 4 4 4 4 4 4 4 4 4 4 3 3 4 4 4 4 3 3 2 2 2 3 4 3 3 2 3 3 2 2 1 1 1 2 2 1 2 3 3
8 7 5 5 5 5 5 4 4 4 4 4 4 4 4 3 6 7 6 4 3 3 2 2 2 2 3 4 5 5 5 4 2 2 0 0 1 1 1 1 1 2 3
7 6 6 6 6 5 5 5 5 4 4 4 4 4 3 3 6 7 7 4 4 3 3 2 2 3 3 3 4 4 3 3 3 3 2 2 2 2 1 1 1 1 2
7 7 7 7 6 5 5 5 4 4 4 4 4 4 3 4 6 7 7 5 3 3 2 2 2 1 2 3 3 3 2 1 1 1 2 2 2 2 2 2 2 1 2
7 7 7 8 7 6 6 5 4 4 4 3 3 4 4 4 6 7 7 4 3 2 2 2 3 2 4 5 4 2 1 1 1 1 1 1 1 1 1 1 1 1 2
9 8 8 8 8 8 7 5 4 4 4 4 3 3 4 3 5 7 7 3 3 2 1 1 3 3 4 5 4 3 2 1 1 2 2 3 3 2 2 1 1 1 1
7 7 7 7 7 7 6 5 5 4 4 4 3 2 2 3 4 6 7 4 4 3 2 1 2 4 4 4 4 3 3 2 1 1 1 1 2 2 2 1 1 2 2
7 7 7 7 7 7 7 6 5 6 5 4 3 1 1 1 2 4 6 6 6 4 3 2 2 4 4 3 2 2 2 1 1 1 1 1 2 2 2 2 2 2 3
8 7 7 6 5 6 7 7 6 5 4 4 3 3 2 1 2 4 5 6 6 3 2 4 4 3 3 2 2 2 2 1 1 0 1 2 2 2 2 2 2 2 3
8 7 6 7 5 5 5 5 5 5 5 4 4 4 2 1 2 2 2 2 4 3 1 2 3 3 2 1 1 0 0 1 1 2 2 2 1 1 1 1 2 2 3
7 6 6 6 6 5 4 4 5 5 7 7 5 5 5 4 5 7 5 4 4 4 3 2 1 1 1 0 0 0 0 0 1 1 1 1 1 2 2 2 1 2 2
7 6 5 5 5 4 4 2 1 2 5 7 6 6 4 6 6 8 8 7 7 7 5 2 2 2 2 2 2 1 1 1 2 1 1 1 2 2 2 2 2 2 3
8 7 5 5 5 5 5 5 3 1 2 3 5 6 6 6 6 7 7 6 6 8 3 2 3 3 3 2 2 2 2 2 2 1 2 2 2 2 2 3 3 3 4
7 7 7 6 5 5 5 5 4 4 3 1 2 4 5 6 6 7 7 6 3 3 2 3 3 3 3 3 3 3 2 2 1 2 2 2 2 2 3 3 3 4 4
6 5 5 5 5 5 4 4 4 4 3 2 1 1 3 4 4 5 7 4 4 4 3 3 3 3 3 3 3 3 3 2 2 2 2 3 3 2 3 3 3 5 4
5 8 7 5 5 4 4 4 4 4 4 3 3 3 2 3 2 3 3 3 3 4 4 4 3 3 3 3 3 3 3 3 3 3 3 3 3 3 3 4 4 4 4
5 6 8 6 5 5 5 5 5 4 4 4 3 4 6 4 4 4 4 4 4 4 4 4 3 3 3 3 3 4 4 3 3 3 3 3 3 3 3 3 4 4 4
5 5 5 5 4 4 4 4 4 4 4 4 2 2 6 3 3 3 3 4 4 4 4 3 3 4 4 4 4 4 4 4 3 3 3 3 3 3 3 3 3 4 4
5 5 4 4 4 5 5 4 4 4 4 4 3 3 3 3 3 3 3 3 3 3 3 3 3 3 3 3 4 4 4 5 4 4 4 3 3 3 3 4 4 4 5
5 6 5 5 4 4 5 4 4 4 4 4 4 4 4 4 3 3 3 3 3 3 3 3 3 4 5 3 3 3 4 4 3 4 5 4 4 3 3 4 4 5 5
5 5 5 5 5 5 5 4 4 4 4 4 4 4 3 3 3 3 3 2 3 3 3 3 3 3 5 5 4 4 5 6 5 3 3 3 4 4 4 4 4 4 5
4 5 4 4 4 4 5 5 4 4 4 4 4 4 4 3 3 3 3 3 3 3 3 3 4 4 4 4 5 5 5 5 5 5 3 2 3 3 4 4 5 4 5
Wind_Direction
169 164 155 162 157 150 152 159 155 143 138 135 133 125 116 108 104 101 95 88 84 70 65 80 71 66 69 59 66 74 74 102 124 318 333 337 5 11 7 11 19 22 19
167 159 159 156 151 151 159 163 152 146 143 139 133 126 125 119 115 116 116 105 105 99 84 82 71 80 73 65 76 78 78 87 125 125 342 350 359 357 0 8 11 16 13
159 156 155 157 160 164 167 161 153 149 142 135 133 135 134 132 126 124 121 114 112 112 109 111 108 99 87 76 79 79 72 74 84 114 17 346 347 356 3 1 3 356 3
157 157 163 171 172 168 160 153 153 152 149 145 141 139 137 134 131 129 123 120 115 103 99 110 115 124 128 117 97 95 94 85 80 85 53 357 341 335 10 359 354 353 353
160 164 173 166 157 150 147 147 145 147 151 146 135 131 130 136 147 145 140 136 130 111 83 81 102 116 119 119 117 127 117 106 97 87 57 18 345 344 334 320 334 329 332
166 171 163 153 150 150 150 146 142 141 139 136 138 142 147 157 155 156 149 138 133 129 117 83 76 75 87 97 108 117 127 132 139 131 127 195 277 269 286 314 323 350 331
166 163 159 159 155 156 152 145 150 150 141 138 144 145 153 162 158 154 153 139 137 138 137 124 104 94 89 89 84 78 80 107 141 156 167 222 234 235 220 301 278 253 268
163 161 161 160 155 149 147 151 152 144 146 149 151 154 152 167 161 151 146 137 130 134 145 152 145 137 126 123 108 84 64 50 100 160 185 223 226 213 199 210 228 268 284
168 169 168 162 155 152 157 159 153 146 150 153 154 158 161 175 167 157 144 135 135 150 166 162 160 166 155 134 120 113 55 339 26 88 96 18 351 354 82 82 28 8 321
180 175 167 162 160 164 166 158 150 151 154 147 146 162 167 176 172 165 154 143 148 162 165 173 180 179 169 150 146 150 165 262 3 26 18 6 357 358 16 141 193 214 287
170 158 156 160 162 161 155 149 146 144 135 136 140 147 167 181 180 174 169 163 171 171 177 202 211 186 175 167 160 170 190 184 131 87 354 341 344 346 333 308 225 194 225
151 151 155 157 160 155 149 151 148 142 137 140 137 135 182 197 178 181 178 177 170 166 186 198 190 169 170 167 162 160 157 122 101 81 5 321 314 306 301 299 285 262 243
148 154 155 154 157 153 155 155 149 150 152 158 161 174 200 197 189 184 178 174 167 164 179 169 158 151 152 160 158 147 131 120 130 150 263 268 266 272 291 311 316 306 297
152 155 152 151 152 151 154 158 159 164 166 169 177 187 191 182 192 188 177 170 165 163 161 146 138 119 109 116 111 112 162 182 180 215 247 267 290 308 309 309 314 321 317
152 153 151 151 154 154 155 167 172 185 183 181 191 184 179 198 210 187 172 175 174 170 143 108 92 100 111 280 295 274 239 168 240 247 247 273 293 300 303 307 306 316 303
151 157 156 155 155 155 151 132 121 169 179 185 181 175 191 197 183 180 181 179 171 158 138 147 178 191 202 216 230 248 239 235 242 248 255 262 276 290 302 312 308 294 293
160 162 159 161 161 162 164 164 162 120 141 180 188 187 187 181 177 176 177 171 166 155 151 182 199 207 214 216 221 226 236 239 230 232 246 260 271 284 295 299 300 300 297
160 163 164 169 168 169 172 175 170 167 170 206 215 197 190 184 179 175 164 143 153 166 181 195 209 214 215 219 222 225 233 237 230 238 250 259 261 271 282 286 287 292 295
161 163 166 164 164 165 163 161 164 171 174 173 155 194 182 176 173 175 159 161 183 198 202 208 212 213 216 220 224 226 226 228 235 238 246 254 255 259 270 276 281 291 297
168 170 164 161 159 158 158 161 168 174 178 181 191 194 163 142 161 181 185 189 195 204 206 212 217 216 217 218 219 217 221 227 233 241 247 251 254 256 266 274 279 285 285
163 169 166 161 167 169 167 173 177 179 185 192 204 195 178 179 192 197 199 203 207 210 211 212 216 220 221 218 213 216 220 228 231 237 245 250 252 259 265 269 276 279 286
160 163 167 170 169 169 170 174 174 179 185 188 193 188 188 184 192 200 210 217 216 212 207 205 214 218 215 211 209 212 220 231 237 237 242 247 252 258 267 272 278 285 290
159 160 161 164 165 166 165 168 174 180 184 186 182 182 188 198 203 208 215 218 212 211 209 206 214 223 221 217 214 211 218 228 233 231 234 242 248 253 262 271 278 287 289
162 164 166 166 164 166 171 176 180 185 186 183 184 188 195 201 205 211 215 212 209 213 211 210 215 221 223 223 221 222 227 232 231 229 228 237 245 252 257 267 274 281 285
160 163 166 168 171 174 176 177 179 183 187 188 188 190 194 197 204 212 216 211 210 216 220 217 217 219 222 226 229 231 235 237 238 235 226 227 239 249 258 267 273 281 284
161 164 166 166 170 172 174 177 182 186 192 193 193 195 194 194 202 212 213 209 214 222 225 223 221 221 225 226 230 235 240 239 235 233 223 224 238 251 258 263 269 275 281